Terug naar catalogus

FREGAT DEB

ActiefUNKNOWN
NORAD 45833·DEBRIS·🇷🇺 Russia

Gelanceerd Jul 18, 2011 vanaf Baikonur Cosmodrome

Loading…

Volgende Passages (komende 24 uur)

TLE

VersSource: Space-Track

Epoch: Sep 14, 2026, 10:20 UTC

1 45833U 11037BT  26257.43101031  .00001228  00000-0  37024-2 0  9991
2 45833  51.6005  37.7924 2008378 271.3230  65.9793 10.24273171234624

Volg FREGAT DEB in realtime met AllMySat

Download on the App Store